| time (UTC) | temp F | wind direction | speed knots | gust knots | rain 1hr in | rain 24hr in | rain mn in | humidity % | barometer mb |
| 20260507051539 | 54 | 305 | 0.9 | 3.5 | 0.00 | 0.10 | 0.00 | 99 | 1007.1 |
| 20260507050050 | 55 | 259 | 1.7 | 6.1 | 0.00 | 0.10 | 0.00 | 99 | 1007.2 |
| 20260507044550 | 55 | 250 | 3.5 | 7.0 | 0.00 | 0.10 | 0.00 | 99 | 1007.3 |
| 20260507043039 | 55 | 273 | 0.0 | 6.1 | 0.00 | 0.10 | 0.00 | 99 | 1007.2 |
| 20260507041541 | 55 | 226 | 2.6 | 9.6 | 0.00 | 0.10 | 0.00 | 99 | 1007.3 |
| 20260507040046 | 55 | 254 | 0.9 | 5.2 | 0.00 | 0.10 | 0.00 | 99 | 1007.1 |
| 20260507034551 | 55 | 158 | 2.6 | 7.8 | 0.00 | 0.10 | 0.10 | 99 | 1007.3 |
| 20260507033046 | 55 | 262 | 2.6 | 8.7 | 0.00 | 0.10 | 0.10 | 99 | 1007.1 |
| 20260507031551 | 55 | 229 | 0.9 | 6.1 | 0.00 | 0.10 | 0.10 | 99 | 1007.4 |
| 20260507030053 | 55 | 273 | 1.7 | 7.0 | 0.00 | 0.10 | 0.10 | 99 | 1007.4 |
| 20260507024546 | 55 | 210 | 1.7 | 7.8 | 0.00 | 0.10 | 0.10 | 99 | 1007.3 |
| 20260507023044 | 54 | 228 | 1.7 | 7.8 | 0.00 | 0.10 | 0.10 | 99 | 1007.3 |
| 20260507021543 | 54 | 194 | 4.3 | 8.7 | 0.00 | 0.10 | 0.10 | 99 | 1007.5 |
| 20260507020040 | 54 | 232 | 1.7 | 8.7 | 0.00 | 0.10 | 0.10 | 99 | 1007.4 |
| 20260507014551 | 54 | 224 | 0.9 | 6.1 | 0.00 | 0.10 | 0.10 | 99 | 1007.3 |
| 20260507013046 | 54 | 206 | 2.6 | 6.1 | 0.00 | 0.10 | 0.10 | 99 | 1007.4 |
| 20260507011545 | 54 | 105 | 1.7 | 7.0 | 0.01 | 0.10 | 0.10 | 99 | 1007.4 |
| 20260507010052 | 54 | 0 | 1.7 | 9.6 | 0.01 | 0.10 | 0.10 | 99 | 1007.8 |
| 20260507004541 | 54 | 213 | 2.6 | 7.8 | 0.01 | 0.10 | 0.10 | 99 | 1007.8 |
| 20260507003039 | 54 | 236 | 1.7 | 7.8 | 0.01 | 0.10 | 0.10 | 99 | 1007.7 |
| 20260507001545 | 54 | 203 | 1.7 | 7.8 | 0.00 | 0.09 | 0.09 | 99 | 1007.6 |
| 20260507000045 | 54 | 124 | 1.7 | 6.1 | 0.00 | 0.09 | 0.09 | 99 | 1007.6 |
| 20260506234543 | 54 | 231 | 3.5 | 9.6 | 0.00 | 0.09 | 0.09 | 99 | 1007.6 |
| 20260506233046 | 53 | 203 | 4.3 | 11.3 | 0.00 | 0.09 | 0.09 | 99 | 1007.5 |
| 20260506231543 | 53 | 194 | 4.3 | 9.6 | 0.01 | 0.09 | 0.09 | 98 | 1007.5 |
| 20260506230038 | 54 | 235 | 3.5 | 8.7 | 0.01 | 0.09 | 0.09 | 98 | 1007.5 |
| 20260506224546 | 54 | 174 | 2.6 | 9.6 | 0.01 | 0.09 | 0.09 | 98 | 1007.5 |
| 20260506223043 | 54 | 195 | 1.7 | 8.7 | 0.02 | 0.09 | 0.09 | 98 | 1007.3 |
| 20260506221543 | 54 | 181 | 3.5 | 15.6 | 0.02 | 0.08 | 0.08 | 98 | 1007.3 |
| 20260506220044 | 54 | 178 | 1.7 | 9.6 | 0.03 | 0.08 | 0.08 | 97 | 1007.3 |
| 20260506214540 | 54 | 92 | 6.1 | 13.0 | 0.04 | 0.08 | 0.08 | 97 | 1007.5 |
| 20260506213102 | 55 | 218 | 3.5 | 13.0 | 0.03 | 0.07 | 0.07 | 97 | 1007.8 |
| 20260506211536 | 55 | 224 | 3.5 | 13.0 | 0.02 | 0.06 | 0.06 | 97 | 1007.8 |
| 20260506210045 | 55 | 214 | 2.6 | 10.4 | 0.01 | 0.05 | 0.05 | 97 | 1008.0 |
| 20260506204549 | 55 | 89 | 4.3 | 12.2 | 0.01 | 0.04 | 0.04 | 96 | 1008.1 |
| 20260506203043 | 55 | 198 | 4.3 | 13.0 | 0.01 | 0.04 | 0.04 | 96 | 1008.2 |
| 20260506201542 | 55 | 202 | 5.2 | 13.0 | 0.02 | 0.04 | 0.04 | 96 | 1008.4 |
| 20260506200048 | 55 | 174 | 3.5 | 14.8 | 0.03 | 0.04 | 0.04 | 96 | 1008.5 |
| 20260506194546 | 56 | 203 | 6.1 | 18.2 | 0.03 | 0.03 | 0.03 | 95 | 1008.7 |
| 20260506193046 | 56 | 261 | 3.5 | 13.0 | 0.03 | 0.03 | 0.03 | 95 | 1008.8 |
| 20260506191543 | 56 | 191 | 3.5 | 12.2 | 0.02 | 0.02 | 0.02 | 93 | 1009.0 |
| 20260506190044 | 57 | 155 | 2.6 | 11.3 | 0.00 | 0.00 | 0.00 | 91 | 1008.8 |
| 20260506184542 | 59 | 165 | 4.3 | 12.2 | 0.00 | 0.00 | 0.00 | 87 | 1009.0 |
| 20260506183039 | 60 | 258 | 3.5 | 13.0 | 0.00 | 0.00 | 0.00 | 84 | 1009.3 |
| 20260506181544 | 60 | 195 | 4.3 | 13.9 | 0.00 | 0.00 | 0.00 | 82 | 1009.3 |
| 20260506180055 | 61 | 152 | 4.3 | 12.2 | 0.00 | 0.00 | 0.00 | 81 | 1009.7 |
| 20260506174553 | 62 | 114 | 5.2 | 16.5 | 0.00 | 0.00 | 0.00 | 80 | 1009.6 |
| 20260506173044 | 63 | 209 | 7.0 | 18.2 | 0.00 | 0.00 | 0.00 | 78 | 1009.9 |
| 20260506171540 | 64 | 167 | 5.2 | 20.0 | 0.00 | 0.00 | 0.00 | 76 | 1010.1 |
| 20260506170050 | 65 | 252 | 6.1 | 13.9 | 0.00 | 0.00 | 0.00 | 74 | 1010.1 |
| 20260506164544 | 65 | 171 | 6.1 | 13.0 | 0.00 | 0.00 | 0.00 | 74 | 1010.2 |
| 20260506163104 | 65 | 208 | 6.1 | 13.0 | 0.00 | 0.00 | 0.00 | 75 | 1010.2 |
| 20260506161544 | 64 | 230 | 6.1 | 21.7 | 0.00 | 0.00 | 0.00 | 76 | 1010.6 |
| 20260506160043 | 65 | 197 | 5.2 | 23.5 | 0.00 | 0.00 | 0.00 | 74 | 1010.9 |
| 20260506154606 | 66 | 137 | 6.1 | 16.5 | 0.00 | 0.00 | 0.00 | 74 | 1011.0 |
| 20260506153054 | 67 | 171 | 5.2 | 17.4 | 0.00 | 0.00 | 0.00 | 71 | 1011.0 |
| 20260506151547 | 66 | 155 | 6.1 | 16.5 | 0.00 | 0.00 | 0.00 | 74 | 1010.9 |
| 20260506150044 | 65 | 158 | 7.8 | 20.0 | 0.00 | 0.00 | 0.00 | 75 | 1011.1 |
| 20260506144546 | 65 | 112 | 7.8 | 20.0 | 0.00 | 0.00 | 0.00 | 75 | 1011.4 |
| 20260506143051 | 65 | 311 | 5.2 | 14.8 | 0.00 | 0.00 | 0.00 | 76 | 1011.0 |
| 20260506141542 | 65 | 216 | 5.2 | 18.2 | 0.00 | 0.00 | 0.00 | 76 | 1011.2 |
| 20260506140036 | 64 | 212 | 5.2 | 11.3 | 0.00 | 0.00 | 0.00 | 77 | 1011.2 |
| 20260506134544 | 64 | 224 | 3.5 | 11.3 | 0.00 | 0.00 | 0.00 | 77 | 1010.9 |
| 20260506133044 | 63 | 196 | 2.6 | 18.2 | 0.00 | 0.00 | 0.00 | 79 | 1011.2 |
| 20260506131545 | 62 | 223 | 6.1 | 16.5 | 0.00 | 0.00 | 0.00 | 80 | 1011.6 |
| 20260506130044 | 61 | 139 | 5.2 | 15.6 | 0.00 | 0.00 | 0.00 | 81 | 1011.4 |
| 20260506124551 | 61 | 217 | 2.6 | 9.6 | 0.00 | 0.00 | 0.00 | 82 | 1011.5 |
| 20260506123036 | 60 | 198 | 7.0 | 19.1 | 0.00 | 0.00 | 0.00 | 84 | 1011.5 |
| 20260506121541 | 59 | 150 | 5.2 | 11.3 | 0.00 | 0.00 | 0.00 | 85 | 1011.4 |
| 20260506120055 | 58 | 188 | 1.7 | 10.4 | 0.00 | 0.00 | 0.00 | 88 | 1011.7 |
| 20260506114547 | 57 | 210 | 4.3 | 11.3 | 0.00 | 0.00 | 0.00 | 89 | 1011.8 |
| 20260506113042 | 57 | 287 | 1.7 | 9.6 | 0.00 | 0.00 | 0.00 | 90 | 1011.9 |
| 20260506111542 | 56 | 174 | 2.6 | 9.6 | 0.00 | 0.00 | 0.00 | 91 | 1011.9 |
| 20260506110055 | 56 | 200 | 2.6 | 11.3 | 0.00 | 0.00 | 0.00 | 92 | 1011.9 |
| 20260506104544 | 56 | 205 | 3.5 | 11.3 | 0.00 | 0.00 | 0.00 | 92 | 1011.9 |
| 20260506103044 | 56 | 175 | 1.7 | 10.4 | 0.00 | 0.00 | 0.00 | 92 | 1011.6 |
| 20260506101544 | 55 | 156 | 4.3 | 11.3 | 0.00 | 0.00 | 0.00 | 93 | 1011.6 |
| 20260506100045 | 55 | 219 | 3.5 | 11.3 | 0.00 | 0.00 | 0.00 | 93 | 1011.6 |
| 20260506094559 | 55 | 221 | 4.3 | 13.0 | 0.00 | 0.00 | 0.00 | 93 | 1011.5 |
| 20260506093052 | 55 | 208 | 5.2 | 12.2 | 0.00 | 0.00 | 0.00 | 93 | 1011.7 |
| 20260506091545 | 55 | 211 | 5.2 | 13.0 | 0.00 | 0.00 | 0.00 | 92 | 1011.7 |
| 20260506090043 | 55 | 245 | 3.5 | 13.9 | 0.00 | 0.00 | 0.00 | 92 | 1011.7 |
| 20260506084546 | 55 | 160 | 6.1 | 10.4 | 0.00 | 0.00 | 0.00 | 92 | 1011.9 |
| 20260506083040 | 56 | 195 | 2.6 | 12.2 | 0.00 | 0.00 | 0.00 | 91 | 1012.1 |
| 20260506081540 | 56 | 233 | 6.1 | 11.3 | 0.00 | 0.00 | 0.00 | 91 | 1012.1 |
| 20260506073047 | 56 | 153 | 4.3 | 11.3 | 0.00 | 0.00 | 0.00 | 90 | 1011.9 |
| 20260506071544 | 57 | 217 | 3.5 | 14.8 | 0.00 | 0.00 | 0.00 | 89 | 1012.0 |
| 20260506061545 | 57 | 272 | 5.2 | 13.9 | 0.00 | 0.00 | 0.00 | 88 | 1011.9 |